Worcester, MA

2:56 AM EDT on August 23, 2017 (GMT -0400)
Worcester Regional

Weather History for KORH - January, 2014

Change the Weather History Date:

Tuesday, January 21, 2014

  Actual Average Record
Temperature  
Mean Temperature 12 °F 24 °F  
Max Temperature 17 °F 31 °F 65 °F (1906)
Min Temperature 6 °F 16 °F -6 °F (1970)
Degree Days  
Heating Degree Days 53 41  
Month to date heating degree days 828 857  
Since 1 July heating degree days 3387 3361  
Cooling Degree Days 0 0  
Month to date cooling degree days 0 0  
Year to date cooling degree days 0 0  
Moisture  
Dew Point 0 °F    
Average Humidity 67    
Maximum Humidity 88    
Minimum Humidity 46    
Precipitation  
Precipitation 0.09 in 0.12 in 2.34 in (1979)
Month to date precipitation 3.05 2.35  
Year to date precipitation 3.05 2.35  
Snow  
Snow 1.80 in 0.50 in 8.70 in (1946)
Month to date snowfall 18.9 11.6  
Since 1 July snowfall 38.3 28.8  
Snow Depth -    
Sea Level Pressure  
Sea Level Pressure 29.92 in    
Wind  
Wind Speed 9 mph (North)    
Max Wind Speed 23 mph    
Max Gust Speed 30 mph    
Visibility 5 miles    
Events Snow    
T = Trace of Precipitation, MM = Missing Value Source: NWS Daily Summary

Daily Weather History Graph

Daily Weather History Graph

Search for Another Location

Airport or City:

Trip Planner

Search our weather history database for the weather conditions in past years. The results will help you decide how hot, cold, wet, or windy it might be!

Date:

Astronomy

Jan. 21, 2014 Rise Set
Actual Time 7:10 AM EST 4:47 PM EST
Civil Twilight 6:39 AM EST 5:18 PM EST
Nautical Twilight 6:05 AM EST 5:52 PM EST
Astronomical Twilight 5:32 AM EST 6:25 PM EST
Moon 10:24 PM EST (1/21) 9:32 AM EST (1/21)
Length of Visible Light 10h 38m
Length of Day
9h 37m
Waning Gibbous, 75% of the Moon is Illuminated
Jan 21
Waning Gibbous
Jan 24
Last Quarter
Jan 30
New
Feb 6
First Quarter
Feb 14
Full

Hourly Weather History & Observations

Time (EST) Temp. Windchill Dew Point Humidity Pressure Visibility Wind Dir Wind Speed Gust Speed Precip Events Conditions
12:54 AM 15.1 °F -0.6 °F 1.9 °F 56% 29.89 in 10.0 mi WNW 16.1 mph 24.2 mph N/A   Clear
1:54 AM 14.0 °F -2.5 °F 1.0 °F 56% 29.91 in 10.0 mi WNW 17.3 mph 26.5 mph N/A   Clear
2:54 AM 14.0 °F 1.2 °F -2.0 °F 49% 29.93 in 10.0 mi WNW 10.4 mph 26.5 mph N/A   Clear
3:54 AM 12.9 °F 2.6 °F -0.9 °F 54% 29.94 in 10.0 mi NW 6.9 mph - N/A   Clear
4:54 AM 12.0 °F -0.4 °F -2.0 °F 53% 29.95 in 10.0 mi NNW 9.2 mph - N/A   Clear
5:54 AM 10.9 °F -5.4 °F -2.9 °F 54% 29.98 in 10.0 mi WNW 15.0 mph 23.0 mph N/A   Clear
6:54 AM 10.9 °F -0.8 °F -2.0 °F 56% 29.98 in 10.0 mi NW 8.1 mph - N/A   Clear
7:54 AM 10.9 °F 2.9 °F -0.9 °F 59% 29.99 in 10.0 mi North 4.6 mph - N/A   Clear
8:54 AM 10.9 °F 4.7 °F -0.9 °F 59% 30.01 in 10.0 mi Variable 3.5 mph - N/A   Scattered Clouds
9:54 AM 10.9 °F 1.4 °F -2.0 °F 56% 30.00 in 10.0 mi NNW 5.8 mph - N/A   Scattered Clouds
10:54 AM 10.9 °F 2.9 °F -2.9 °F 54% 30.02 in 10.0 mi ENE 4.6 mph - N/A   Overcast
11:54 AM 12.0 °F - -5.1 °F 46% 30.01 in 10.0 mi Calm Calm - N/A   Overcast
12:54 PM 12.9 °F 5.2 °F -6.0 °F 43% 30.00 in 10.0 mi NNW 4.6 mph - N/A   Overcast
1:54 PM 12.0 °F 5.9 °F -4.0 °F 49% 29.97 in 10.0 mi Variable 3.5 mph - N/A   Overcast
2:54 PM 12.0 °F -0.4 °F -2.9 °F 51% 29.94 in 10.0 mi NE 9.2 mph - N/A   Overcast
3:33 PM 10.0 °F -4.5 °F -0.9 °F 61% 29.85 in 2.5 mi NE 11.5 mph 17.3 mph 0.00 in Snow Light Snow
3:42 PM 10.0 °F 0.4 °F 1.0 °F 67% 29.87 in 1.0 mi Variable 5.8 mph 16.1 mph 0.00 in Snow Light Snow
3:54 PM 9.0 °F -0.9 °F 1.0 °F 70% 29.94 in 1.0 mi NE 5.8 mph - 0.00 in Snow Light Snow
4:37 PM 8.1 °F -4.3 °F 1.9 °F 76% 29.87 in 0.5 mi NE 8.1 mph - 0.00 in Snow Light Snow
4:52 PM 8.6 °F -3.7 °F 3.2 °F 79% 29.87 in 1.0 mi NE 8.1 mph - 0.01 in Snow Light Snow
4:54 PM 8.1 °F -4.3 °F 3.0 °F 80% 29.94 in 1.0 mi NNE 8.1 mph - 0.01 in Snow Light Snow
5:54 PM 6.1 °F -8.7 °F 1.9 °F 83% 29.95 in 1.0 mi NNE 10.4 mph 18.4 mph 0.02 in Snow Light Snow
6:54 PM 6.1 °F -8.7 °F 3.0 °F 87% 29.94 in 1.5 mi NNE 10.4 mph - 0.02 in Snow Light Snow
7:54 PM 6.1 °F -7.8 °F 1.9 °F 83% 29.94 in 1.0 mi NNE 9.2 mph - 0.02 in Snow Light Snow
8:14 PM 6.1 °F -8.7 °F 1.9 °F 83% 29.88 in 1.5 mi NNE 10.4 mph - 0.01 in Snow Light Snow
8:54 PM 6.1 °F -10.2 °F 1.9 °F 83% 29.94 in 2.0 mi North 12.7 mph - 0.01 in Snow Light Snow
9:13 PM 6.1 °F -10.2 °F 1.0 °F 80% 29.86 in 2.5 mi North 12.7 mph - 0.01 in Snow Light Snow
9:54 PM 6.1 °F -9.5 °F 1.9 °F 83% 29.92 in 2.0 mi North 11.5 mph - 0.01 in Snow Light Snow
10:02 PM 6.1 °F -9.5 °F 1.9 °F 83% 29.85 in 1.8 mi North 11.5 mph - 0.00 in Snow Light Snow
10:10 PM 6.1 °F -10.9 °F 1.9 °F 83% 29.84 in 2.0 mi North 13.8 mph 19.6 mph 0.00 in Snow Light Snow
10:19 PM 6.1 °F -10.2 °F 1.9 °F 83% 29.84 in 1.8 mi North 12.7 mph - 0.00 in Snow Light Snow
10:25 PM 6.1 °F -7.8 °F 1.0 °F 80% 29.83 in 2.0 mi North 9.2 mph 19.6 mph 0.00 in Snow Light Snow
10:35 PM 6.1 °F -10.9 °F 1.9 °F 83% 29.84 in 2.5 mi North 13.8 mph 21.9 mph 0.00 in Snow Light Snow
10:54 PM 6.1 °F -10.9 °F 1.0 °F 80% 29.90 in 2.5 mi North 13.8 mph 23.0 mph 0.00 in Snow Light Snow
11:37 PM 6.1 °F -10.9 °F 1.0 °F 80% 29.79 in 3.0 mi North 13.8 mph 23.0 mph 0.00 in Snow Light Snow
11:54 PM 6.1 °F -10.9 °F 1.0 °F 80% 29.84 in 2.5 mi NNE 13.8 mph 24.2 mph 0.00 in Snow Light Snow